Regional Weather Roundup
Issued by NWS

Home | Current Version | Previous Version | Text Only | Print | Product List | Glossary On
Versions: 1 2 3 4 5 6 7 8 9 10 11 12 13 14 15 16 17 18 19 20 21 22 23 24 25 26 27 28 29 30 31 32 33 34 35 36 37 38 39 40 41 42 43 44 45 46 47 48 49 50
279
ASUS44 KFWD 031401
RWRTX
NORTH TEXAS HOURLY WEATHER ROUNDUP
NATIONAL WEATHER SERVICE FORT WORTH TX
900 AM CDT TUE MAY 03 2016

NOTE: "FAIR" INDICATES FEW OR NO CLOUDS BELOW 12,000 FEET WITH NO
SIGNIFICANT WEATHER AND/OR OBSTRUCTIONS TO VISIBILITY.

TXZ118-119-031500-
DALLAS/FORT WORTH METROPLEX

CITY           SKY/WX    TMP DP  RH WIND       PRES   REMARKS
DFW AIRPORT    SUNNY     61  49  64 N6        30.13R
DALLAS LOVE    SUNNY     59  48  67 NW7       30.14R
FTW MEACHAM    SUNNY     60  50  69 CALM      30.13R
DAL-EXECUTIVE  SUNNY     58  49  72 NW7       30.13R
FTW-ALLIANCE   SUNNY     59  52  77 CALM      30.13R
FTW-NAS-JRB    SUNNY     58  50  75 CALM      30.14R
FTW-SPINKS     SUNNY     55  54  94 CALM      30.15R
ARLINGTON      SUNNY     62  50  64 NW5       30.14R
GRAND PRAIRIE  SUNNY     59  48  67 CALM      30.15R
ADDISON        SUNNY     59  50  72 NW5       30.14R
MESQUITE       SUNNY     59  50  72 NW7       30.13R
LANCASTER      SUNNY     58  47  68 NW9       30.14R
$$

TXZ091>094-102>105-117-120-121-131>134-031500-
NORTH CENTRAL TEXAS

CITY           SKY/WX    TMP DP  RH WIND       PRES   REMARKS
DECATUR        SUNNY     56  49  77 W3        30.14R
DENTON         SUNNY     57  52  83 CALM      30.13R
MCKINNEY       SUNNY     58  53  84 VRB3      30.13R
ROCKWALL       SUNNY     58  49  72 NW5       30.12
TERRELL        SUNNY     59  49  69 N8        30.13R
WAXAHACHIE     SUNNY     58  53  83 NW6       30.15R
GRANBURY       SUNNY     55  51  86 CALM      30.16R
$$

TXZ083>090-098>101-113>116-127>130-139>142-154-155-031500-
WESTERN NORTH TEXAS

CITY           SKY/WX    TMP DP  RH WIND       PRES   REMARKS
WICHITA FALLS  SUNNY     56  49  77 SW8       30.14R
WF-KICKAPOO    SUNNY     59  48  67 SW5       30.15S
ABILENE        NOT AVBL
ABILENE-DYESS  SUNNY     60  51  72 SE6       30.13R
MINERAL WELLS  SUNNY     53  50  89 W3        30.13R
STEPHENVILLE   SUNNY     55  49  79 CALM      30.17R
COMANCHE       SUNNY     56  51  84 CALM      30.16R
BROWNWOOD      SUNNY     54  50  87 CALM      30.16R
COLEMAN        SUNNY     55  50  83 CALM      30.15R
$$

TXZ143>147-156>162-174-175-031500-
CENTRAL TEXAS

CITY           SKY/WX    TMP DP  RH WIND       PRES   REMARKS
WACO           SUNNY     59  51  75 N6        30.14R
WACO-TSTC      SUNNY     57  52  82 CALM      30.14R
WACO-MCGREGOR  SUNNY     57  50  77 CALM      30.14R
HILLSBORO      SUNNY     56  50  80 N3        30.14R
CORSICANA      SUNNY     60  49  66 N7        30.14R
HEARNE         SUNNY     56  52  85 NW5       30.15R
TEMPLE         SUNNY     57  51  80 N3        30.15R
KILLEEN        SUNNY     58  50  75 NE3       30.14R
KILLEEN-SKYLRK SUNNY     58  49  72 NE3       30.15R
FORT HOOD      SUNNY     57  50  78 VRB1      30.12R
HAMILTON       SUNNY     56  53  89 CALM      30.16R
$$

TXZ095>097-106>112-122>126-135>138-148>153-164>167-031500-
EAST TEXAS

CITY           SKY/WX    TMP DP  RH WIND       PRES   REMARKS
PARIS          SUNNY     55  45  67 N7        30.12R
GILMER         SUNNY     56  49  77 N3        30.11R
MINEOLA        SUNNY     59  48  67 N7        30.13R
TYLER          SUNNY     58  49  72 N5        30.11R
LONGVIEW       SUNNY     58  49  72 N7        30.09R
PALESTINE      SUNNY     56  51  84 N3        30.13R
JACKSONVILLE   SUNNY     56  49  78 N7        30.11S
NACOGDOCHES    SUNNY     57  48  72 N10       30.08S
LUFKIN         SUNNY     59  48  67 N12       30.09R
$$

SUPPLEMENTAL OBSERVATIONS (CENTRAL)

CITY           SKY/WX    TMP DP  RH WIND       PRES   REMARKS
$$

SUPPLEMENTAL OBSERVATIONS (WEST)

CITY           SKY/WX    TMP DP  RH WIND       PRES   REMARKS
$$

SUPPLEMENTAL OBSERVATIONS (EAST)

CITY           SKY/WX    TMP DP  RH WIND       PRES   REMARKS
$$

SUPPLEMENTAL OBSERVATIONS ARE A COLLECTION OF AUTOMATED INSTRUMENTS
THAT ARE MAINTAINED BY A VARIETY OF FEDERAL AND STATE AGENCIES.
CERTAIN ELEMENTS...SUCH AS HUMIDITY VALUES AND SUSTAINED WIND
SPEEDS...MAY BE APPROXIMATED.





USA.gov is the U.S. government's official web portal to all federal, state and local government web resources and services.